Location: Burla
(50.9568°N, 10.4983°E)
Time: 20:41:18
(UTC+00:00)

Cosmos 2344 - Pass Details

Date: 18 January 2026
Orbit: 1196 x 3047 km, 63.3° (Epoch: 15 February)

Event Time Altitude Azimuth Distance (km) Brightness Sun altitude
Exits shadow 03:29:57 34° 353° (N) 1,934 4.5 -34.3°
Maximum altitude 03:30:05 34° 355° (N) 1,936 4.5 -34.3°
Drops below altitude 10° 03:37:13 10° 59° (ENE) 3,480 6.6 -33.2°
Sets 03:40:48 0° 69° (ENE) 4,661 7.6 -32.6°
